Regional Weather Roundup
Issued by NWS Wakefield, VA

Home | Current Version | Previous Version | Text Only | Print | Product List | Glossary Off
Versions: 1 2 3 4 5 6 7 8 9 10 11 12 13 14 15 16 17 18 19 20 21 22 23 24 25 26 27 28 29 30 31 32 33 34 35 36 37 38 39 40 41 42 43 44 45 46 47 48 49 50

000
ASUS41 KAKQ 040314
RWRAKQ

REGIONAL WEATHER ROUNDUP
NATIONAL WEATHER SERVICE WAKEFIELD VA
1100 PM EDT THU SEP 03 2015

Note: "fair" indicates few or no clouds below 12,000 feet with no
significant weather and/or obstructions to visibility. * = Denotes
station may not report precipitation (e.g., rain,snow,etc.),
thunder or fog.

VAZ042-051-052>054-056-040400-
NORTHERN VIRGINIA

CITY           SKY/WX    TMP DP  RH WIND       PRES   REMARKS
WASH NATIONAL  CLOUDY    80  74  81 CALM      29.90S
DULLES         CLOUDY    78  67  68 CALM      29.91F
FORT BELVOIR   MOCLDY    74  69  86 CALM      29.89F
QUANTICO       MOCLDY    77  72  84 NW7       29.90F
FREDERICKSBRG* PTCLDY    75  70  84 CALM      29.90S
STAFFORD*      PTCLDY    73  70  90 CALM      29.94F
WARRENTON      MOCLDY    77  72  83 CALM      29.91F
CULPEPER*      CLOUDY    72  70  93 CALM      29.92F
MANASSAS*      MOCLDY    75  73  94 SW3       29.91S
LEESBURG*      CLOUDY    77  72  83 SW3       29.93S
WINCHESTER     PTCLDY    72  68  88 SW7       29.94F
FRONT ROYAL*   FAIR      70  68  94 S7        29.94F
LURAY*         FAIR      70  70 100 CALM      29.97F
$$

VAZ048-049-060>072-079>083-040400-
CENTRAL AND SOUTH CENTRAL VIRGINIA

CITY           SKY/WX    TMP DP  RH WIND       PRES   REMARKS
RICHMOND       PTCLDY    79  70  74 CALM      29.91R
CHESTERFIELD*  FAIR      75  63  64 NW3       29.92S
PETERSBURG*    PTCLDY    74  74 100 CALM      29.92R
HANOVER        CLEAR     73  71  93 CALM      29.92S FOG
TAPPAHANNOCK*  CLEAR     74  70  89 CALM      29.91S FOG
QUINTON*       FAIR      73  73  98 CALM      29.90S FOG
CHARLOTTSVILLE MOCLDY    76  69  79 N6        29.95R
GORDONSVILLE*  FAIR      72  70  92 CALM      29.94R
ORANGE*        MOCLDY    79  68  69 CALM      29.94F
LOUISA*        PTCLDY    72  68  88 CALM      29.92F
BUMPASS*       FAIR      73  71  94 N3        29.92S
FARMVILLE*     PTCLDY    76  67  74 CALM      29.92S
CREWE*         FAIR     N/A N/A N/A CALM      29.92S
FORT PICKETT*  FAIR      76  71  83 W7        29.93S
CHASE CITY*    FAIR      76  75  96 CALM      29.94S
CLARKSVILLE*   FAIR      72  72 100 CALM      29.93R
SOUTH HILL*    PTCLDY    71  71  98 CALM      29.98S
LAWRENCEVILLE* FAIR      73  73 100 CALM      29.91S
EMPORIA*       FOG       72  72 100 CALM      29.92S VSB 3/4
$$

VAZ088>098-040400-
SOUTHEAST VIRGINIA

CITY           SKY/WX    TMP DP  RH WIND       PRES   REMARKS
NORFOLK        PTCLDY    79  70  74 SW7       29.89S
VIRGINIA BEACH PTCLDY    79  70  74 W3        29.89S
NORFOLK NAVAL  MOCLDY    76  70  82 CALM      29.90F
WEST POINT*    CLEAR     77  73  85 CALM      29.91S
SALUDA*        FAIR      76  71  85 CALM      29.89S
NEWPORT NEWS   CLEAR     73  69  87 CALM      29.90S
LANGLEY AFB    CLEAR     75  70  83 SW5       29.88F
FORT EUSTIS    CLEAR     77  77 100 E2        29.88S
WILLIAMSBURG*  CLEAR     79  75  89 CALM      29.91S
HR EXEC AP*      N/A     70  66  88 CALM      29.92S
FRANKLIN*      PTCLDY    74  73  96 CALM      29.90S
WAKEFIELD      CLEAR     74  71  91 CALM      29.90S FOG
$$

VAZ020-022-025-037-045-040400-
WEST CENTRAL AND SOUTHWEST VIRGINIA

CITY           SKY/WX    TMP DP  RH WIND       PRES   REMARKS
STAUNTON*      LGT RAIN  73  69  88 NW5       30.01S
WAYNESBORO*    FAIR      72  66  83 SW3       30.00F
HOT SPRINGS VA PTCLDY    68  64  86 NW8       30.13S
LYNCHBURG      CLEAR     71  67  87 N3        29.97S
DANVILLE       PTCLDY    72  68  87 CALM      29.94R
SOUTH BOSTON*  FAIR      73  71  95 CALM      29.94R
MARTINSVILLE   CLEAR     70  70 100 CALM      30.00R
ROANOKE        CLEAR     77  66  68 N3        30.01R
BLACKSBURG     CLEAR     67  67  99 CALM      30.08S
DUBLIN*        CLOUDY    72  67  83 CALM      30.07S
MARION*        MOCLDY    68  66  93 CALM      30.12R FOG
HILLSVILLE*    PTCLDY    72  64  76 NW5       30.08S
RICHLANDS*     FAIR      72  34  25 CALM      30.10S
WISE*          CLEAR     72  61  68 CALM      30.11S
ABINGDON*      CLEAR     72  65  78 CALM      30.06S
$$

MDZ021>025-VAZ099-100-040400-
SOUTHERN MARYLAND AND THE DELMARVA PENINSULA

CITY           SKY/WX    TMP DP  RH WIND       PRES   REMARKS
PATUXENT RIVER MOCLDY    74  70  87 W3        29.89S
BAY BRIDGE APT   N/A     81  72  74 W5        29.88F
LEONARDTOWN    NOT AVBL
DOVER          CLEAR     76  76 100 N2        29.86S
GEORGETOWN     CLEAR     74  68  81 CALM      29.88F
EASTON         NOT AVBL
CAMBRIDGE      PTCLDY    73  70  88 CALM      29.88F
SALISBURY      CLEAR     75  71  87 CALM      29.88S
OCEAN CITY     CLEAR     78  70  76 W6        29.87F
WALLOPS ISLAND CLEAR     75  73  93 W3        29.89S
ACCOMACK*      CLEAR     70  64  83 W3        29.87S
$$

NCZ012>017-030>032-040400-
NORTH CENTRAL AND EASTERN NORTH CAROLINA

CITY           SKY/WX    TMP DP  RH WIND       PRES   REMARKS
ROANOKE RAPIDS FAIR      73  72  94 CALM      29.91S
RALEIGH        PTCLDY    71  68  90 CALM      29.93S
ELIZABETH CITY CLEAR     73  71  93 CALM      29.90S
AHOSKIE*       PTCLDY    72  71  96 CALM      29.91S FOG
EDENTON*       CLEAR     75  72  91 CALM      29.90F
CURRITUCK*     CLEAR     74  70  87 CALM      29.91S
KILL DEVIL HLS CLEAR     77  71  81 CALM      29.89S
MANTEO         CLEAR     78  72  81 W3        29.90F
CAPE HATTERAS  CLEAR     77  72  84 W3        29.90S
TARBORO*         N/A     73  72  96 CALM      29.91F FOG
GOLDSBORO      PTCLDY    76  71  86 CALM      29.90S
WASHINGTON     PTCLDY    73  71  95 CALM      29.90F
GREENVILLE     PTCLDY    73  73 100 CALM      29.93S FOG
NEW BERN       CLEAR     74  72  93 CALM      29.92S
WILMINGTON     MOCLDY    74  70  87 CALM      29.90F
$$

VAZ048-040400-
ELSEWHERE

CITY           SKY/WX    TMP DP  RH WIND       PRES   REMARKS
HARRISBURG PA  MOCLDY    79  68  69 CALM      29.89F
BALTIMORE      MOCLDY    77  69  76 CALM      29.89F
ANNAPOLIS      MOCLDY    79  74  84 CALM      29.88F
ANDREWS AFB    CLOUDY    74  72  91 CALM      29.89F
PHILADELPHIA   MOCLDY    81  70  69 CALM      29.89S
HENDERSON NC   CLEAR     73  69  89 CALM      29.93S FOG
GREENSBORO     MOCLDY    78  64  61 NW3       29.95S
ROCKY MOUNT    PTCLDY    75  72  90 CALM      29.91F FOG
$$

VAZ100-040400-
MARINE

STATION/POSITION TIME  TEMP    WIND        PRES    WAVE   SWELL
                       AIR SEA DIR/SP/G            HT/PER HT/PER
                 (UTC) (F)     (DEG/KT/KT) (MB)    (FT/S) (FT/S)
BRANDYWINE LGT   0200   81 77  200/  7/  8 1012.0R
CAPE MAY NJ      0200   75 81  110/  4/  4 1011.6R
LEWES DE         0200   80 77   90/  1/  2 1011.7R
15NM E FENWICK I 0250   81 80  130/  4/  4 1011.9F   1/10   2/10
OCEAN-CITY-INLET 0200   79 80  260/  4/  5 1011.0R
GOOSES REEF MD   0300   81 80  280/  4/  4 1013.0F
COVE POINT MD    0200   81     310/  3/  4 1012.7R
SOLOMONS ISLAND  0200      82                N/A
BISHOPS HEAD MD  0200   82 84  290/  3/  4 1011.2R
PINEY POINT MD   0205          270/  1/  2   N/A
POTOMAC MD       0300   82 81  270/  4/  4 1010.9F   1
CAMBRIDGE MD     0200   81 82  260/  2/  2 1011.3R
LEWISETTA VA     0200   81 83  260/  1/  1 1011.8R
RAPPAHANNOCK LGT 0200          180/  4/  5 1012.6R
STINGRAY PT      0300   82 81  240/  6/  6 1012.5R   0
YORK RVR RNG VA  0200   82     200/  5/  6 1011.6R
JAMESTOWN VA     0300   79 83   CALM  /  2   N/A
DOMINION TERM VA 0200   81     230/  4/  5 1012.2R
KIPTOPEKE VA     0200      80  130/  2/  2   N/A
CHES BAY BRIDGE  0200   81 80  160/  4/  5 1011.8R
CAPE HENRY VA    0242   79     210/  6/  7   N/A
CHESAPEAKE LGHT  0200   80     210/  6/  7 1013.1R
WILLOUBY STN VA  0200   82     320/  3/  3 1013.2R
CAPE HENRY BUOY  0228      81                N/A     1/13
1ST LANDING BUOY 0300      80              1011.8F   1
CAPE CHARLES BUO 0226      80                N/A     1/13   2/13
OFFSHORE WE BUOY 0211      80                N/A     1/13   2/13
64NM E OF VA BCH 0250   79 79  260/  6/  6 1011.8F   1/12   2/12
DUCK PIER NC     0200   80 81  220/  6/  7 1011.8R
44100 DUCK FRF   0224      80                N/A     1/12
44056 DUCK FRF   0211      80                N/A     1/13
OREGON INLET NC  0200   81 83  220/  6/  7 1012.3R
HATTERAS NC      0200   79 84  230/  4/  6 1012.3R
DIAMOND SHLS NC  0250   81 85  280/  6/  8 1012.5F   1/ 9   2/ 9
CAPE LOOKOUT NC  0300   79     270/  5/  6 1012.3R
$$


USA.gov is the U.S. government's official web portal to all federal, state and local government web resources and services.